THORAD DELTA 1 DEB, 8177

Orbit data source: Space-Track

THORAD DELTA 1 DEB, 8177 is space debris in SSO originally from a launch on Fri, 15 Nov 1974 UTC launched from the Air Force Western Test Range (AFWTR). Debris objects in space refer to the collection of defunct objects orbiting the Earth. Examples of debris include non-operational satellites, rocket bodies, and fragments generated from explosions, collisions, or faulty payload assembly.

Loading next visibility...
Identifier
8177, 1974-089AT
Orbit
SSO
Country
Flag of USUS
Related business
Manufacturer
Unknown
Mission
Spacecraft
Bus & Motor
Unknown
Mass
Unknown
Launch date (UTC)
1974-11-15 (51 years ago)
Launch vehicle
Unknown
Launch site
Air Force Western Test Range (AFWTR)
Object type
Payload
Rocket body
Debris
Shape & HBR
Unknown shape, 0.2 m
Radar Cross Section
Medium (>0.1 m² and <1 m²)

Expand to show TLE details & history
Last TLE update: 14 hours ago

TLE from 14 hours ago
0 THORAD DELTA 1 DEB
1 08177U 74089AT  25293.91426523  .00000331  00000-0  38486-2 0  9992
2 08177 101.0954  75.0554 0262187 218.4964 263.1725 12.05347600240900
Epoch: 2025-10-20T21:56Z
TLE epoch observation values (Epoch: 2025-10-20T21:56:32.515Z)
Latitude
59.49038°
Longitude
-84.3477°
Altitude
1,697.391 km
Speed
7.019 km/s
True Right ascension
18h 17m 35s
True Declination
59° 21' 26"
Sunlit
Object was in daylight at epoch
Visualization orbit readout
Latitude
Unknown
Longitude
Unknown
Altitude
Unknown
Speed
Unknown
Apparent Right ascension
Unknown
Apparent Declination
Unknown
Sunlit
N/A
Visualization observer readout
Local Sidereal Time
06:33:07
Azimuth
Unknown
Elevation
Unknown
Doppler factor
Unknown
Orbital elements
Apogee altitude
1,865.181 km
Perigee altitude
1,443.966 km
Semi-major axis
8,032.71 km
Eccentricity
0.02622
Inclination
101.0954°
RAAN
75.0554°
Arg. of periapsis
218.4964°
True anomaly
260.20227°
Mean anomaly
263.1725°
Eccentric anomaly
261.68607°
Mean motion
3.01474 °/min
Orbital period
119.41 mins
BSTAR
0.0038486
Loading maneuver chart data...
Computing Atmospheric mass density...

Documentation

Showing up to 5 results
|